AirNav   TITAN Aviation Fuels
 
 1762 users online  

KTQH Tahlequah Municipal Airport
Tahlequah, Oklahoma, USA

GOING TO TAHLEQUAH?


FAA INFORMATION EFFECTIVE 11 AUGUST 2022

Location

FAA Identifier: TQH
Lat/Long: 35-55-49.0000N 095-00-16.3000W
35-55.816667N 095-00.271667W
35.9302778,-95.0045278
(estimated)
Elevation: 874.1 ft. / 266.4 m (surveyed)
Variation: 05E (1995)
From city: 2 miles NW of TAHLEQUAH, OK
Time zone: UTC -5 (UTC -6 during Standard Time)
Zip code: 74464

Airport Operations

Airport use: Open to the public
Activation date: 10/1948
Control tower: no
ARTCC: MEMPHIS CENTER
FSS: MC ALESTER FLIGHT SERVICE STATION
NOTAMs facility: TQH (NOTAM-D service available)
Attendance: MON-FRI 0800-1700
Wind indicator: yes
Segmented circle: yes
Lights: ACTVT REIL RWY 17 & 35; MIRL RWY 17/35 - CTAF. PAPI RWY 17 & 35 ON CONSLY.
Beacon: white-green (lighted land airport)
Operates sunset to sunrise.

Airport Communications

CTAF/UNICOM: 122.8
WX AWOS-3P: 118.425 (918-453-2729)
  • APCH/DEP SVC PRVDD BY MEMPHIS ARTCC ON FREQS 126.1/269.0 (FAYETTEVILLE RCAG).

Nearby radio navigation aids

NDB name  Hdg/Dist  Freq  Var  ID
SILOAM SPRINGS234/29.528404ESLG ... .-.. --.

Airport Services

Fuel available: 100LL JET-A
Parking: hangars and tiedowns
Airframe service: MINOR
Powerplant service: MINOR

Runway Information

Runway 17/35

Dimensions: 5001 x 75 ft. / 1524 x 23 m
Surface: asphalt, in good condition
Weight bearing capacity: 
Single wheel: 26.0
Runway edge lights: medium intensity
RUNWAY 17  RUNWAY 35
Latitude: 35-56.228988N35-55.405447N
Longitude: 095-00.251395W095-00.290892W
Elevation: 869.4 ft.851.2 ft.
Traffic pattern: leftleft
Runway heading: 177 magnetic, 182 true357 magnetic, 002 true
Markings: nonprecision, in good conditionnonprecision, in good condition
Visual slope indicator: 4-light PAPI on left (3.50 degrees glide path)4-light PAPI on left (3.00 degrees glide path)
PAPI UNUSBL BYD 8 DEGS RIGHT OF CNTRLN.
Runway end identifier lights: yesyes
Touchdown point: yes, no lightsyes, no lights
Obstructions: 34 ft. trees, 719 ft. from runway, 150 ft. right of centerline, 15:1 slope to clear19 ft. trees, 240 ft. from runway, 112 ft. left of centerline, 2:1 slope to clear
18 FT TREE 185 FT FM RWY END 120 FT L OF CNTRLN.

Airport Ownership and Management from official FAA records

Ownership: Publicly-owned
Owner: CITY OF TAHLEQUAH
CITY HALL, 111 S. CHEROKEE
TAHLEQUAH, OK 74464
Phone 918-456-0561
Manager: BRIAN LAMBERT
2100 AIRPORT PARKWAY
TAHLEQUAH, OK 74464
Phone (918) 708-5600

Airport Operational Statistics

Aircraft based on the field: 36
Single engine airplanes: 31
Multi engine airplanes: 3
Jet airplanes: 2
    
Aircraft operations: avg 42/day *
56% local general aviation
44% transient general aviation
* for 12-month period ending 30 September 2021

Additional Remarks

FOR CD CTC MEMPHIS ARTCC AT 901-368-8453/8449.

Instrument Procedures

NOTE: All procedures below are presented as PDF files. If you need a reader for these files, you should download the free Adobe Reader.

NOT FOR NAVIGATION. Please procure official charts for flight.
FAA instrument procedures published for use from 11 August 2022 at 0901Z to 08 September 2022 at 0900z.

 
IAPs - Instrument Approach Procedures
RNAV (GPS) RWY 17   download (235KB)
RNAV (GPS) RWY 35   download (234KB)
NOTE: Special Alternate Minimums apply   download (122KB)
NOTE: Special Take-Off Minimums/Departure Procedures apply   download (131KB)

Other nearby airports with instrument procedures:

H68 - Hefner-Easley Airport (17 nm W)
H71 - Mid-America Industrial Airport (24 nm NW)
KMKO - Muskogee-Davis Regional Airport (24 nm SW)
KSLG - Smith Field Airport (29 nm NE)
KJSV - Sallisaw Municipal Airport (31 nm S)
 
Loc | Ops | Rwys | IFR | FBO | Links
Com | Nav | Svcs | Stats | Notes
Area around KTQH (Tahlequah Municipal Airport)
 
Road maps at: MapQuest Bing Google
 
Aerial photo
WARNING: Photo may not be current or correct
Aerial photo of KTQH (Tahlequah Municipal Airport)
Photo by Renee LaCombe
Photo taken 07-Nov-2013
looking north.

Do you have a better or more recent aerial photo of Tahlequah Municipal Airport that you would like to share? If so, please send us your photo.

 
Sectional chart

 
Airport distance calculator
Flying to Tahlequah Municipal Airport? Find the distance to fly.

From to KTQH

Sunrise and sunset
Times for 17-Aug-2022
 Local
(UTC-5)
 Zulu
(UTC)
Morning civil twilight06:1411:14
Sunrise06:4111:41
Sunset20:0701:07
Evening civil twilight20:3401:34

Current date and time
Zulu (UTC)  17-Aug-2022 15:43:29
Local (UTC-5)  17-Aug-2022 10:43:29
 
METAR
KTQH 171515Z AUTO 00000KT 10SM OVC008 22/20 A3006 RMK AO2
TAF
KXNA 
40nm NE 
171123Z 1712/1812 08005KT P6SM VCSH SCT015 BKN050 TEMPO 1712/1714 3SM -TSRA BKN015CB FM171400 09007KT P6SM OVC007 FM172200 07008KT P6SM SCT015 BKN025 FM180200 VRB03KT P6SM SCT025 BKN080
KFYV 
41nm E 
171123Z 1712/1812 18005KT P6SM VCSH SCT015 BKN050 TEMPO 1712/1714 3SM -TSRA BKN015CB FM171400 09005KT P6SM VCSH OVC007 FM172200 07005KT P6SM SCT015 BKN025 FM180200 VRB03KT P6SM SCT025 BKN080
KTUL 
46nm W 
171123Z 1712/1812 01007KT P6SM VCSH BKN025 FM171400 02009KT P6SM VCSH BKN007 OVC015 FM171800 04008KT P6SM BKN025 FM180200 VRB03KT P6SM SCT250
KFSM 
47nm SE 
171259Z 1713/1812 13005KT P6SM BKN025 TEMPO 1713/1716 2SM TSRA BKN012CB FM171600 06008KT P6SM VCSH BKN007 FM172100 05007KT P6SM VCSH BKN015 FM180000 06005KT P6SM SCT025 BKN050 FM180600 06005KT P6SM BKN025
KRVS 
48nm W 
171123Z 1712/1812 01007KT P6SM VCSH BKN015 FM171400 02009KT P6SM VCSH BKN007 OVC015 FM171800 04008KT P6SM BKN025 FM180200 VRB03KT P6SM SCT250
NOTAMs
Click for the latest NOTAMs
NOTAMs are issued by the DoD/FAA and will open in a separate window not controlled by AirNav.

 

 
 

FBO, Fuel Providers, and Aircraft Ground Support

  
 Business Name 
 
 Contact 
 
 Services / Description 
 
Fuel Prices
 
Comments
  
City of Tahlequah (FBO) 918-431-4139
no information available

If you are affiliated with City of Tahlequah (FBO) and would like to show here your services, contact info, web link, logo, and more, click here
100LL Jet A
AS $5.80 $6.20 
 Updated 03-Aug-2022
 
   1 read write
AS=Assisted/Self Service
Update Fuel Prices
 

Would you like to see your business listed on this page?

 If your business provides an interesting product or service to pilots, flight crews, aircraft, or users of the Tahlequah Municipal Airport, you should consider listing it here.  To start the listing process, click on the button below
 
Add a business
 

Other Pages about Tahlequah Municipal Airport

www.cityoftahlequah.com/...
 
Update a link
 
Copyright © AirNav, LLC. All rights reserved. Privacy Policy  Contact